NIMBUS 2 DEB, 26962

Orbit data source: Space-Track

NIMBUS 2 DEB, 26962 is space debris in SSO originally from a launch on Sun, 15 May 1966 UTC launched from the Air Force Western Test Range (AFWTR). Debris objects in space refer to the collection of defunct objects orbiting the Earth. Examples of debris include non-operational satellites, rocket bodies, and fragments generated from explosions, collisions, or faulty payload assembly.

Loading next visibility...
Identifier
26962, 1966-040M
Orbit
SSO
Country
Flag of USUS
Related business
Manufacturer
Unknown
Mission
Spacecraft
Bus & Motor
Unknown
Mass
Unknown
Launch date (UTC)
1966-05-15 (60 years ago)
Launch vehicle
Unknown
Launch site
Air Force Western Test Range (AFWTR)
Object type
Payload
Rocket body
Debris
Shape & HBR
Unknown shape, 0.1 m
Radar Cross Section
Small (<0.1 m²)

Expand to show TLE details & history
Last TLE update: 18 hours ago

TLE from 18 hours ago
0 NIMBUS 2 DEB
1 26962U 66040M   26125.22754095  .00002462  00000-0  36121-2 0  9990
2 26962 100.3024  34.7266 0051984 269.7970 243.3910 13.55025367221815
Epoch: 2026-05-05T05:27Z
TLE epoch observation values (Epoch: 2026-05-05T05:27:39.538Z)
Latitude
26.90419°
Longitude
-85.02855°
Altitude
1,074.448 km
Speed
7.309 km/s
True Right ascension
14h 39m 57s
True Declination
26° 46' 18"
Sunlit
Object was in full shadow at epoch
Visualization orbit readout
Latitude
Unknown
Longitude
Unknown
Altitude
Unknown
Speed
Unknown
Apparent Right ascension
Unknown
Apparent Declination
Unknown
Sunlit
N/A
Visualization observer readout
Local Sidereal Time
07:34:54
Azimuth
Unknown
Elevation
Unknown
Doppler factor
Unknown
Orbital elements
Apogee altitude
1,089.773 km
Perigee altitude
1,012.532 km
Semi-major axis
7,429.29 km
Eccentricity
0.0052
Inclination
100.3024°
RAAN
34.7266°
Arg. of periapsis
269.797°
True anomaly
242.85995°
Mean anomaly
243.391°
Eccentric anomaly
243.12532°
Mean motion
3.3894 °/min
Orbital period
106.21 mins
BSTAR
0.0036121
Loading maneuver chart data...
Computing Atmospheric mass density...
Loading historical data...
Loading historical data...
Loading historical data...
Loading historical data...
Loading historical data...
Loading historical data...
Loading historical data...

Documentation

Showing up to 5 results
|